Flag for Brazil Weather past 2 weeks in Pirassununga, São Paulo, Brazil

Now
61 °F

Fog.


Feels Like: 61 °F
Forecast: 60 / 79 °F
Wind: 2 mph from Southeast

Location: Pirassununga Airport

Current Time: Jul 3, 2015 at 7:58:30 AM

Latest Report: Jul 3, 2015 at 7:00 AM


Visibility: 1 mi

Pressure: 30.01 "Hg

Humidity: 100%

Dew point: 61 °F

Location of PirassunungaLocation

Historic Weather in Pirassununga — Graph

°F

Pirassununga temperature yesterday

Maximum temperature yesterday: 77 °F (at 2:00 PM)
Minimum temperature yesterday: 61 °F (at 9:00 AM)
Average temperature yesterday: 70 °F

Past Weeks' High & Low Weather Summary

 TemperatureHumidityPressure
High86 °F (Jun 18, 2:00 PM)100% (Jun 23, 6:00 AM)30.45 "Hg (Jun 23, 6:00 AM)
Low43 °F (Jun 28, 6:00 AM)30% (Jun 23, 2:00 PM)30.01 "Hg (Jul 3, 6:00 AM)
Average66 °F69%30.24 "Hg
* Reported Jun 18 6:00 AM — Jul 3 6:00 AM, Pirassununga, Weather by CustomWeather, © 2015

Note: Actual official high and low records may vary slightly from our data, if they occured in-between our weather recording intervals... More about our weather records

Advertising

Pirassununga weather history for previous 24 hours

 ConditionsComfort  
Time TempWeatherWind HumidityBarometerVisibility
6:00 AM
Fri, Jul 3
61 °FFog.2 mph100%30.01 "Hg1 mi
11:00 PM
Thu, Jul 2
64 °FFog.3 mph94%30.07 "Hg2 mi
10:00 PM64 °FFog.2 mph94%30.07 "Hg3 mi
9:00 PM66 °FFog.3 mph83%30.07 "Hg3 mi
8:00 PM66 °FFog.2 mph88%30.07 "Hg3 mi
7:00 PM68 °FFog.7 mph83%30.07 "Hg3 mi
6:00 PM70 °FPassing clouds.6 mph73%30.04 "HgN/A
5:00 PM73 °FPassing clouds.7 mph69%30.04 "HgN/A
4:00 PM73 °FPassing clouds.6 mph69%30.04 "HgN/A
3:00 PM75 °FPassing clouds.6 mph65%30.04 "HgN/A
2:00 PM77 °FScattered clouds.3 mph57%30.07 "HgN/A
1:00 PM75 °FScattered clouds.5 mph61%30.09 "HgN/A
12:00 PM73 °FScattered clouds.5 mph65%30.12 "HgN/A
11:00 AM72 °FPassing clouds.2 mph69%30.15 "HgN/A
10:00 AM66 °FFog.3 mph83%30.18 "Hg3 mi
9:00 AM61 °FFog.2 mph100%30.15 "Hg1 mi
Weather by CustomWeather, © 2015

See weather overviewHow to use our weather pages